Richmond, VA

6:24 PM EST on February 08, 2016 (GMT -0500)
Richmond International

Weather History for KRIC - May, 2013

Change the Weather History Date:

Friday, May 3, 2013

  Actual Average Record
Temperature  
Mean Temperature 58 °F 63 °F  
Max Temperature 69 °F 75 °F 92 °F (1965)
Min Temperature 46 °F 51 °F 34 °F (1963)
Degree Days  
Heating Degree Days 7 4  
Month to date heating degree days 16 12  
Since 1 July heating degree days 3621 3704  
Cooling Degree Days 0 2  
Month to date cooling degree days 0 6  
Year to date cooling degree days 66 48  
Growing Degree Days 8 (Base 50)    
Moisture  
Dew Point 45 °F    
Average Humidity 63    
Maximum Humidity 93    
Minimum Humidity 32    
Precipitation  
Precipitation 0.00 in 0.11 in 1.34 in (1893)
Month to date precipitation T 0.33  
Year to date precipitation 16.38 13.44  
Snow  
Snow 0.00 in 0.00 in 0.00 in (2002)
Month to date snowfall 0.0 0.0  
Since 1 July snowfall 8.6 10.3  
Snow Depth 0.00 in    
Sea Level Pressure  
Sea Level Pressure 30.32 in    
Wind  
Wind Speed 9 mph (ENE)    
Max Wind Speed 21 mph    
Max Gust Speed 25 mph    
Visibility 10 miles    
Events      
T = Trace of Precipitation, MM = Missing Value Source: NWS Daily Summary

Daily Weather History Graph

Daily Weather History Graph

Search for Another Location

Airport or City:

Trip Planner

Search our weather history database for the weather conditions in past years. The results will help you decide how hot, cold, wet, or windy it might be!

Date:

Astronomy

May. 03, 2013 Rise Set
Actual Time 6:11 AM EDT 8:01 PM EDT
Civil Twilight 5:43 AM EDT 8:29 PM EDT
Nautical Twilight 5:09 AM EDT 9:04 PM EDT
Astronomical Twilight 4:32 AM EDT 9:40 PM EDT
Moon 2:27 AM EDT (5/3) 2:00 PM EDT (5/3)
Length of Visible Light 14h 46m
Length of Day
13h 49m
Last Quarter, 37% of the Moon is Illuminated
May 3
Last Quarter
May 9
New
May 18
First Quarter
May 25
Full
May 31
Last Quarter

Hourly Weather History & Observations

Time (EDT) Temp. Windchill Dew Point Humidity Pressure Visibility Wind Dir Wind Speed Gust Speed Precip Events Conditions
12:54 AM 50.0 °F - 48.0 °F 93% 30.32 in 10.0 mi Calm Calm - N/A   Scattered Clouds
1:54 AM 48.9 °F - 46.9 °F 93% 30.30 in 10.0 mi ENE 3.5 mph - N/A   Scattered Clouds
2:54 AM 48.0 °F - 45.0 °F 89% 30.29 in 10.0 mi Calm Calm - N/A   Scattered Clouds
3:54 AM 46.0 °F 43.9 °F 44.1 °F 93% 30.29 in 10.0 mi NNE 4.6 mph - N/A   Partly Cloudy
4:54 AM 48.0 °F - 46.0 °F 93% 30.30 in 10.0 mi NE 6.9 mph - N/A   Partly Cloudy
5:54 AM 50.0 °F - 48.0 °F 93% 30.31 in 10.0 mi NE 9.2 mph - N/A   Mostly Cloudy
6:54 AM 51.1 °F - 48.9 °F 92% 30.32 in 8.0 mi NNE 9.2 mph - N/A   Overcast
7:54 AM 53.1 °F - 51.1 °F 93% 30.33 in 9.0 mi NE 8.1 mph - N/A   Overcast
8:12 AM 53.6 °F - 51.8 °F 94% 30.33 in 10.0 mi NE 8.1 mph - N/A   Overcast
8:54 AM 55.9 °F - 51.1 °F 84% 30.34 in 10.0 mi ENE 6.9 mph - N/A   Overcast
9:24 AM 59.0 °F - 51.8 °F 77% 30.32 in 10.0 mi NE 11.5 mph 20.7 mph N/A   Overcast
9:54 AM 60.1 °F - 51.1 °F 72% 30.34 in 10.0 mi ENE 8.1 mph - N/A   Overcast
10:54 AM 64.9 °F - 50.0 °F 58% 30.35 in 10.0 mi East 11.5 mph - N/A   Overcast
11:54 AM 66.0 °F - 46.0 °F 48% 30.35 in 10.0 mi ESE 12.7 mph 18.4 mph N/A   Overcast
12:54 PM 68.0 °F - 39.0 °F 35% 30.33 in 10.0 mi ESE 17.3 mph 24.2 mph N/A   Mostly Cloudy
1:54 PM 68.0 °F - 37.9 °F 33% 30.32 in 10.0 mi ENE 16.1 mph 23.0 mph N/A   Mostly Cloudy
2:54 PM 66.9 °F - 41.0 °F 39% 30.32 in 10.0 mi ENE 15.0 mph 21.9 mph N/A   Mostly Cloudy
3:54 PM 64.9 °F - 39.0 °F 39% 30.30 in 10.0 mi ENE 13.8 mph - N/A   Overcast
4:54 PM 63.0 °F - 39.9 °F 43% 30.30 in 10.0 mi ENE 13.8 mph 23.0 mph N/A   Mostly Cloudy
5:54 PM 60.1 °F - 39.9 °F 47% 30.31 in 10.0 mi ENE 13.8 mph 20.7 mph N/A   Mostly Cloudy
6:54 PM 57.0 °F - 41.0 °F 55% 30.31 in 10.0 mi ENE 11.5 mph - N/A   Mostly Cloudy
7:54 PM 55.0 °F - 41.0 °F 59% 30.32 in 10.0 mi ENE 8.1 mph - N/A   Mostly Cloudy
8:54 PM 52.0 °F - 42.1 °F 69% 30.32 in 10.0 mi ENE 5.8 mph - N/A   Mostly Cloudy
9:54 PM 50.0 °F - 43.0 °F 77% 30.34 in 10.0 mi ENE 3.5 mph - N/A   Scattered Clouds
10:54 PM 48.9 °F - 43.0 °F 80% 30.32 in 10.0 mi NE 5.8 mph - N/A   Scattered Clouds
11:54 PM 48.0 °F - 43.0 °F 83% 30.31 in 10.0 mi NE 6.9 mph - N/A   Scattered Clouds